Regional Weather Roundup
Issued by NWS

Home | Current Version | Previous Version | Graphics & Text | Print | Product List | Glossary On
Versions: 1 2 3 4 5 6 7 8 9 10 11 12 13 14 15 16 17 18 19 20 21 22 23 24 25 26 27 28 29 30 31 32 33 34 35 36 37 38 39 40 41 42 43 44 45 46 47 48 49 50
351
ASUS45 KCYS 200610
RWRWY

WYOMING REGIONAL WEATHER ROUNDUP
NATIONAL WEATHER SERVICE CHEYENNE WY
1100 PM MST MON FEB 19 2018

NOTE:  "FAIR" INDICATES FEW OR NO CLOUDS BELOW 12,000 FEET
WITH NO SIGNIFICANT WEATHER AND/OR OBSTRUCTIONS TO VISIBILITY.

WYZ001-200700-
YELLOWSTONE NATIONAL PARK

CITY           SKY/WX    TMP DP  RH WIND       PRES   REMARKS
LK YELLOWSTONE   N/A    -19 -24  77 W3        29.62R
6HR MIN TEMP: -20; 6HR MAX TEMP:   2;

W YELLOWSTONE  NOT AVBL

$$
WYZ002>013-054>058-071-098>099-200700-
NORTHERN WYOMING

CITY           SKY/WX    TMP DP  RH WIND       PRES   REMARKS
JACKSON        MOCLDY     1  -5  75 NE16      29.64R WCI -19
CODY           CLOUDY    -6 -11  79 CALM      29.87S
GREYBULL       CLOUDY    -2  -4  91 CALM      29.97F FOG
6HR MIN TEMP:  -2; 6HR MAX TEMP:   2; 6HR PCP: TRACE;

WORLAND        CLOUDY    -3  -6  87 CALM      29.94S
6HR MIN TEMP:  -7; 6HR MAX TEMP:   1; 6HR PCP: TRACE;

SHERIDAN       CLOUDY    -2  -7  79 W7        29.95F HAZE    WCI -15
6HR MIN TEMP:  -2; 6HR MAX TEMP:   1;

BUFFALO        FAIR      -6 -12  75 NW7       29.84F WCI -20
6HR MIN TEMP: -10; 6HR MAX TEMP:  -1; 6HR PCP: TRACE;

GILLETTE       CLOUDY   -12 -16  82 NW6       29.89F WCI -26
6HR MIN TEMP: -12; 6HR MAX TEMP:  -2; 6HR PCP:  0.01;

HULETT         LGT SNOW  -4  -8  84 MISG      29.89F
NEWCASTLE      LGT SNOW  -2  -8  78 NW5       29.87F WCI -12

$$
WYZ014>020-022>026-101>103-200700-
CENTRAL WYOMING

CITY           SKY/WX    TMP DP  RH WIND       PRES   REMARKS
BIG PINEY      CLOUDY    -1  -6  79 SE7       29.66R WCI -14
6HR MIN TEMP:  -1; 6HR MAX TEMP:   6; 6HR PCP: TRACE;

PINEDALE       CLOUDY     0  -6  78 SW3       29.65R
DUBOIS         NOT AVBL
LANDER         CLOUDY    -4  -9  79 SE5       29.78R WCI -15
6HR MIN TEMP:  -4; 6HR MAX TEMP:   1; 6HR PCP:  0.01;

RIVERTON       FAIR      -7 -13  75 SE5       29.80R WCI -18
6HR MIN TEMP:  -7; 6HR MAX TEMP:  -1; 6HR PCP:  0.01;

CASPER         FAIR     -16 -18  91 NW9       29.81S WCI -35
6HR MIN TEMP: -16; 6HR MAX TEMP:  -2; 6HR PCP: TRACE;

DOUGLAS        CLOUDY    -1  -7  75 NW10      29.84S WCI -17
6HR MIN TEMP:  -3; 6HR MAX TEMP:   0; 6HR PCP: TRACE;


$$
WYZ021-027>030-104>119-200700-
SOUTHERN WYOMING

CITY           SKY/WX    TMP DP  RH WIND       PRES   REMARKS
EVANSTON       CLOUDY     8   3  80 CALM      29.63R
6HR MIN TEMP:   7; 6HR MAX TEMP:  12; 6HR PCP:  0.01;

FORT BRIDGER   FLURRIES   0  -6  78 W7        29.66  WCI -13
ROCK SPRINGS   CLOUDY    -3 -11  68 E8        29.68R WCI -18
6HR MIN TEMP:  -3; 6HR MAX TEMP:   0; 6HR PCP: TRACE;

DIXON          LGT SNOW   1  -4  80 W3        29.71R
RAWLINS        CLOUDY    -5 -11  75 N5        29.67R HAZE    WCI -16
6HR MIN TEMP:  -8; 6HR MAX TEMP:  -4;

SARATOGA       LGT SNOW  -6  -9  84 NW6       29.64S WCI -18
LARAMIE        LGT SNOW  -7 -11  83 N8        29.57R FOG     WCI -23
6HR MIN TEMP:  -9; 6HR MAX TEMP:   5; 6HR PCP:  0.03;

CHEYENNE       FAIR      -4  -9  79 N9        29.68R WCI -20
6HR MIN TEMP:  -5; 6HR MAX TEMP:   1; 6HR PCP:  0.06;

TORRINGTON     MOCLDY     0  -7  72 N6        29.85S WCI -12
6HR MIN TEMP:  -1; 6HR MAX TEMP:   3; 6HR PCP: TRACE;

PINE BLUFFS    CLOUDY    -2  -8  78 MISG      29.77R

$$




USA.gov is the U.S. government's official web portal to all federal, state and local government web resources and services.